Weather History for Park Rapids, MN

Change the Weather History Date:

Friday, July 18, 2014

  Actual Average Record
Temperature  
Mean Temperature 68 °F -  
Max Temperature 80 °F 82 °F 95 °F (1957)
Min Temperature 57 °F 58 °F 42 °F (1984)
Cooling Degree Days 3    
Growing Degree Days 18 (Base 50)    
Moisture  
Dew Point 57 °F    
Average Humidity 69    
Maximum Humidity 94    
Minimum Humidity 48    
Precipitation  
Precipitation 0.00 in - - ()
Sea Level Pressure  
Sea Level Pressure 29.89 in    
Wind  
Wind Speed 11 mph (South)    
Max Wind Speed 26 mph    
Max Gust Speed 32 mph    
Visibility 10 miles    
Events      
Averages and records for this station are not official NWS values.
T = Trace of Precipitation, MM = Missing Value Source: NWS Daily Summary

Daily Weather History Graph

Daily Weather History Graph

Search for Another Location

Airport:

Trip Planner

Search our weather history database for the weather conditions in past years. The results will help you decide how hot, cold, wet, or windy it might be!

Date:

Astronomy

Jul. 18, 2014 Rise Set
Actual Time 5:43 AM CDT 9:08 PM CDT
Civil Twilight 5:06 AM CDT 9:45 PM CDT
Nautical Twilight 4:16 AM CDT 10:35 PM CDT
Astronomical Twilight 3:12 AM CDT 11:38 PM CDT
Moon 12:01 AM CDT 1:32 PM CDT
Length of Visible Light 16h 39m
Length of Day
15h 24m
Waning Gibbous, 54% of the Moon is Illuminated
Jul 18
Waning Gibbous
Jul 18
Last Quarter
Jul 26
New
Aug 3
First Quarter
Aug 10
Full

Hourly Weather History & Observations

Time (CDT) Temp. Dew Point Humidity Pressure Visibility Wind Dir Wind Speed Gust Speed Precip Events Conditions
12:53 AM 60.8 °F 55.4 °F 82% 29.95 in 10.0 mi SSE 5.8 mph - N/A   Clear
1:53 AM 61.0 °F 55.9 °F 83% 29.95 in 10.0 mi South 4.6 mph - N/A   Clear
2:53 AM 59.0 °F 55.9 °F 90% 29.94 in 10.0 mi SSE 4.6 mph - N/A   Clear
3:53 AM 57.9 °F 55.9 °F 93% 29.94 in 10.0 mi SSE 5.8 mph - N/A   Clear
4:53 AM 59.0 °F 55.9 °F 90% 29.94 in 10.0 mi SSE 4.6 mph - N/A   Clear
5:53 AM 57.0 °F 55.0 °F 93% 29.93 in 10.0 mi SE 9.2 mph - N/A   Clear
6:53 AM 57.2 °F 55.4 °F 94% 29.94 in 10.0 mi SSE 8.1 mph - N/A   Clear
7:53 AM 62.1 °F 57.0 °F 84% 29.94 in 10.0 mi SSE 11.5 mph - N/A   Clear
8:53 AM 66.0 °F 57.0 °F 73% 29.94 in 10.0 mi South 12.7 mph - N/A   Clear
9:53 AM 69.1 °F 57.0 °F 65% 29.93 in 10.0 mi South 15.0 mph - N/A   Clear
10:53 AM 73.0 °F 57.0 °F 57% 29.91 in 10.0 mi South 18.4 mph - N/A   Clear
11:53 AM 75.9 °F 59.0 °F 56% 29.89 in 10.0 mi South 13.8 mph 24.2 mph N/A   Clear
12:53 PM 78.1 °F 60.1 °F 54% 29.88 in 10.0 mi South 20.7 mph 26.5 mph N/A   Partly Cloudy
1:53 PM 78.1 °F 57.9 °F 50% 29.87 in 10.0 mi South 23.0 mph 29.9 mph N/A   Scattered Clouds
2:53 PM 78.1 °F 57.9 °F 50% 29.86 in 10.0 mi South 21.9 mph 29.9 mph N/A   Scattered Clouds
3:53 PM 79.0 °F 57.9 °F 48% 29.86 in 10.0 mi South 19.6 mph 29.9 mph N/A   Scattered Clouds
4:53 PM 78.1 °F 57.9 °F 50% 29.84 in 10.0 mi South 26.5 mph 32.2 mph N/A   Scattered Clouds
5:53 PM 77.0 °F 57.0 °F 50% 29.84 in 10.0 mi South 21.9 mph 31.1 mph N/A   Clear
6:53 PM 75.9 °F 57.9 °F 54% 29.84 in 10.0 mi South 18.4 mph 26.5 mph N/A   Clear
7:53 PM 73.9 °F 57.0 °F 55% 29.83 in 10.0 mi South 15.0 mph 25.3 mph N/A   Clear
8:53 PM 71.1 °F 57.9 °F 63% 29.83 in 10.0 mi South 12.7 mph - N/A   Clear
9:53 PM 70.0 °F 59.0 °F 68% 29.83 in 10.0 mi South 12.7 mph - N/A   Clear
10:53 PM 68.0 °F 59.0 °F 73% 29.83 in 10.0 mi South 12.7 mph - N/A   Clear
11:53 PM 66.9 °F 59.0 °F 76% 29.82 in 10.0 mi South 10.4 mph - N/A   Clear